Location: Newark
(27.9675°N, 86.8869°E)
Time: 01:17:50
(UTC+00:00)

Vanguard 3 - Pass Details

Date: 31 October 2019
Orbit: 508 x 3263 km, 33.3° (Epoch: 17 November)

Event Time Altitude Azimuth Distance (km) Brightness Sun altitude
Rises 14:21:33 0° 257° (WSW) 5,379 12.2 -38.5°
Reaches altitude 10° 14:25:51 10° 259° (W) 3,912 11.3 -39.4°
Enters shadow 14:32:44 45° 274° (W) 1,569 8.7 -41.0°
Maximum altitude 14:35:08 71° 343° (NNW) 1,091 - -41.5°
Drops below altitude 10° 14:40:23 10° 68° (ENE) 2,271 - -42.6°
Sets 14:42:19 0° 70° (ENE) 3,009 - -43.1°
